| time (UTC) | temp F | wind direction | speed MPH | gust MPH | rain 1hr in | rain 24hr in | rain mn in | humidity % | barometer mb |
| 20260905112935 | 78 | 175 | 0.0 | 3.0 | 0.00 | 0.00 | 0.00 | 70 | 1012.4 |
| 20260905112431 | 78 | 159 | 0.0 | 0.0 | 0.00 | 0.00 | 0.00 | 69 | 1012.8 |
| 20260905111926 | 78 | 171 | 1.0 | 1.0 | 0.00 | 0.00 | 0.00 | 69 | 1012.7 |
| 20260905111420 | 77 | 170 | 0.0 | 0.0 | 0.00 | 0.00 | 0.00 | 70 | 1012.8 |
| 20260905110914 | 77 | 164 | 0.0 | 0.0 | 0.00 | 0.00 | 0.00 | 72 | 1012.8 |
| 20260905110408 | 77 | 162 | 0.0 | 1.0 | 0.00 | 0.00 | 0.00 | 72 | 1012.8 |
| 20260905105903 | 77 | 162 | 0.0 | 0.0 | 0.00 | 0.00 | 0.00 | 72 | 1012.9 |
| 20260905105402 | 77 | 163 | 0.0 | 0.0 | 0.00 | 0.00 | 0.00 | 72 | 1013.0 |
| 20260905104856 | 77 | 163 | 0.0 | 0.0 | 0.00 | 0.00 | 0.00 | 72 | 1013.0 |
| 20260905104353 | 77 | 163 | 0.0 | 0.0 | 0.00 | 0.00 | 0.00 | 72 | 1012.8 |
| 20260905103853 | 77 | 163 | 0.0 | 0.0 | 0.00 | 0.00 | 0.00 | 72 | 1012.8 |
| 20260905103348 | 77 | 164 | 0.0 | 0.0 | 0.00 | 0.00 | 0.00 | 71 | 1013.0 |
| 20260905102844 | 77 | 165 | 0.0 | 0.0 | 0.00 | 0.00 | 0.00 | 71 | 1012.9 |
| 20260905102341 | 78 | 167 | 0.0 | 0.0 | 0.00 | 0.00 | 0.00 | 70 | 1012.9 |
| 20260905101840 | 78 | 174 | 0.0 | 1.0 | 0.00 | 0.00 | 0.00 | 70 | 1012.9 |
| 20260905101339 | 78 | 194 | 1.0 | 2.0 | 0.00 | 0.00 | 0.00 | 70 | 1012.9 |
| 20260905100833 | 78 | 187 | 2.0 | 2.0 | 0.00 | 0.00 | 0.00 | 70 | 1012.8 |
| 20260905100330 | 78 | 164 | 0.0 | 1.0 | 0.00 | 0.00 | 0.00 | 70 | 1012.7 |
| 20260905095829 | 79 | 168 | 0.0 | 1.0 | 0.00 | 0.00 | 0.00 | 68 | 1013.0 |
| 20260905095323 | 79 | 169 | 0.0 | 1.0 | 0.00 | 0.00 | 0.00 | 68 | 1012.9 |
| 20260905094818 | 79 | 171 | 0.0 | 0.0 | 0.00 | 0.00 | 0.00 | 67 | 1013.1 |
| 20260905094313 | 80 | 192 | 1.0 | 2.0 | 0.00 | 0.00 | 0.00 | 67 | 1013.0 |
| 20260905093812 | 80 | 199 | 2.0 | 3.0 | 0.00 | 0.00 | 0.00 | 67 | 1012.9 |
| 20260905093308 | 80 | 180 | 1.0 | 3.0 | 0.00 | 0.00 | 0.00 | 66 | 1012.9 |
| 20260905092804 | 80 | 177 | 1.0 | 3.0 | 0.00 | 0.00 | 0.00 | 66 | 1012.9 |
| 20260905092258 | 80 | 178 | 1.0 | 2.0 | 0.00 | 0.00 | 0.00 | 66 | 1013.1 |
| 20260905091758 | 80 | 187 | 1.0 | 1.0 | 0.00 | 0.00 | 0.00 | 66 | 1012.9 |
| 20260905091253 | 80 | 211 | 1.0 | 2.0 | 0.00 | 0.00 | 0.00 | 66 | 1013.0 |
| 20260905090752 | 81 | 169 | 0.0 | 1.0 | 0.00 | 0.00 | 0.00 | 65 | 1012.9 |
| 20260905090248 | 81 | 175 | 1.0 | 2.0 | 0.00 | 0.00 | 0.00 | 65 | 1013.1 |
| 20260905085742 | 81 | 218 | 2.0 | 2.0 | 0.00 | 0.00 | 0.00 | 64 | 1012.9 |
| 20260905085242 | 81 | 172 | 0.0 | 3.0 | 0.00 | 0.00 | 0.00 | 64 | 1013.1 |
| 20260905084742 | 81 | 165 | 1.0 | 2.0 | 0.00 | 0.00 | 0.00 | 64 | 1012.9 |
| 20260905084242 | 82 | 185 | 0.0 | 2.0 | 0.00 | 0.00 | 0.00 | 64 | 1012.9 |
| 20260905083737 | 82 | 170 | 1.0 | 2.0 | 0.00 | 0.00 | 0.00 | 63 | 1013.0 |
| 20260905083232 | 82 | 169 | 1.0 | 5.0 | 0.00 | 0.00 | 0.00 | 63 | 1012.7 |
| 20260905082728 | 82 | 143 | 1.0 | 3.0 | 0.00 | 0.00 | 0.00 | 63 | 1012.9 |
| 20260905082224 | 82 | 198 | 3.0 | 5.0 | 0.00 | 0.00 | 0.00 | 63 | 1012.6 |
| 20260905081718 | 82 | 144 | 1.0 | 5.0 | 0.00 | 0.00 | 0.00 | 63 | 1012.5 |
| 20260905081214 | 82 | 100 | 1.0 | 5.0 | 0.00 | 0.00 | 0.00 | 62 | 1012.6 |
| 20260905080713 | 82 | 171 | 1.0 | 5.0 | 0.00 | 0.00 | 0.00 | 62 | 1012.6 |
| 20260905080213 | 82 | 181 | 1.0 | 3.0 | 0.00 | 0.00 | 0.00 | 62 | 1012.6 |
| 20260905075712 | 82 | 183 | 1.0 | 7.0 | 0.00 | 0.00 | 0.00 | 62 | 1012.9 |
| 20260905075211 | 82 | 187 | 4.0 | 6.0 | 0.00 | 0.00 | 0.00 | 62 | 1012.6 |
| 20260905074710 | 82 | 156 | 1.0 | 5.0 | 0.00 | 0.00 | 0.00 | 63 | 1012.7 |
| 20260905074206 | 82 | 90 | 2.0 | 7.0 | 0.00 | 0.00 | 0.00 | 63 | 1012.9 |
| 20260905073702 | 82 | 180 | 0.0 | 6.0 | 0.00 | 0.00 | 0.00 | 63 | 1013.0 |
| 20260905073157 | 82 | 180 | 1.0 | 3.0 | 0.00 | 0.00 | 0.00 | 63 | 1012.8 |
| 20260905072657 | 82 | 159 | 1.0 | 3.0 | 0.00 | 0.00 | 0.00 | 63 | 1013.2 |
| 20260905072152 | 82 | 168 | 1.0 | 2.0 | 0.00 | 0.00 | 0.00 | 63 | 1013.2 |
| 20260905071648 | 82 | 178 | 0.0 | 0.0 | 0.00 | 0.00 | 0.00 | 63 | 1013.2 |
| 20260905071144 | 82 | 215 | 0.0 | 0.0 | 0.00 | 0.00 | 0.00 | 62 | 1013.4 |
| 20260905070639 | 82 | 172 | 0.0 | 2.0 | 0.00 | 0.00 | 0.00 | 62 | 1013.3 |
| 20260905070135 | 82 | 173 | 0.0 | 5.0 | 0.00 | 0.00 | 0.00 | 62 | 1013.2 |
| 20260905065633 | 82 | 246 | 1.0 | 3.0 | 0.00 | 0.00 | 0.00 | 61 | 1013.2 |
| 20260905065128 | 82 | 161 | 2.0 | 7.0 | 0.00 | 0.00 | 0.00 | 61 | 1013.3 |
| 20260905064623 | 82 | 173 | 2.0 | 8.0 | 0.00 | 0.00 | 0.00 | 61 | 1013.1 |
| 20260905064119 | 82 | 151 | 3.0 | 5.0 | 0.00 | 0.00 | 0.00 | 61 | 1013.2 |
| 20260905063617 | 82 | 128 | 1.0 | 3.0 | 0.00 | 0.00 | 0.00 | 61 | 1013.2 |
| 20260905063114 | 82 | 179 | 0.0 | 1.0 | 0.00 | 0.00 | 0.00 | 61 | 1013.1 |
| 20260905062609 | 82 | 145 | 0.0 | 0.0 | 0.00 | 0.00 | 0.00 | 61 | 1013.2 |
| 20260905062108 | 82 | 180 | 0.0 | 2.0 | 0.00 | 0.00 | 0.00 | 61 | 1013.3 |
| 20260905061603 | 82 | 88 | 1.0 | 5.0 | 0.00 | 0.00 | 0.00 | 61 | 1013.2 |
| 20260905061103 | 82 | 162 | 1.0 | 3.0 | 0.00 | 0.00 | 0.00 | 61 | 1013.0 |
| 20260905060559 | 82 | 132 | 3.0 | 5.0 | 0.00 | 0.00 | 0.00 | 60 | 1012.9 |
| 20260905060054 | 82 | 209 | 1.0 | 5.0 | 0.00 | 0.00 | 0.00 | 60 | 1012.6 |
| 20260905055553 | 82 | 142 | 2.0 | 3.0 | 0.00 | 0.00 | 0.00 | 61 | 1012.9 |
| 20260905055049 | 82 | 135 | 1.0 | 3.0 | 0.00 | 0.00 | 0.00 | 61 | 1012.7 |
| 20260905054544 | 82 | 141 | 1.0 | 2.0 | 0.00 | 0.00 | 0.00 | 61 | 1012.7 |
| 20260905054039 | 82 | 106 | 3.0 | 3.0 | 0.00 | 0.00 | 0.00 | 61 | 1012.7 |
| 20260905053538 | 82 | 118 | 3.0 | 6.0 | 0.00 | 0.00 | 0.00 | 61 | 1012.5 |
| 20260905053034 | 82 | 101 | 3.0 | 5.0 | 0.00 | 0.00 | 0.00 | 60 | 1012.3 |
| 20260905052533 | 82 | 107 | 2.0 | 3.0 | 0.00 | 0.00 | 0.00 | 60 | 1012.4 |
| 20260905052028 | 83 | 127 | 4.0 | 6.0 | 0.00 | 0.00 | 0.00 | 60 | 1012.6 |
| 20260905051524 | 83 | 98 | 3.0 | 5.0 | 0.00 | 0.00 | 0.00 | 60 | 1012.3 |
| 20260905051021 | 83 | 117 | 2.0 | 5.0 | 0.00 | 0.00 | 0.00 | 59 | 1012.3 |
| 20260905050516 | 83 | 129 | 2.0 | 3.0 | 0.00 | 0.00 | 0.00 | 59 | 1012.4 |
| 20260905050013 | 83 | 134 | 1.0 | 3.0 | 0.00 | 0.00 | 0.00 | 59 | 1012.7 |
| 20260905045507 | 84 | 129 | 0.0 | 2.0 | 0.00 | 0.00 | 0.00 | 58 | 1012.7 |
| 20260905045003 | 84 | 133 | 3.0 | 3.0 | 0.00 | 0.00 | 0.00 | 58 | 1012.8 |
| 20260905044457 | 84 | 124 | 1.0 | 2.0 | 0.00 | 0.00 | 0.00 | 59 | 1012.9 |
| 20260905043956 | 84 | 157 | 3.0 | 5.0 | 0.00 | 0.00 | 0.00 | 58 | 1012.8 |
| 20260905043455 | 84 | 162 | 5.0 | 7.0 | 0.00 | 0.00 | 0.00 | 58 | 1012.9 |
| 20260905042951 | 84 | 117 | 2.0 | 5.0 | 0.00 | 0.00 | 0.00 | 58 | 1012.9 |
| 20260905042445 | 84 | 124 | 1.0 | 2.0 | 0.00 | 0.00 | 0.00 | 58 | 1012.9 |
| 20260905041940 | 84 | 171 | 1.0 | 5.0 | 0.00 | 0.00 | 0.00 | 58 | 1013.1 |
| 20260905041431 | 84 | 116 | 1.0 | 6.0 | 0.00 | 0.00 | 0.00 | 59 | 1013.1 |
| 20260905040931 | 84 | 105 | 1.0 | 2.0 | 0.00 | 0.00 | 0.00 | 59 | 1012.9 |
| 20260905040430 | 84 | 132 | 0.0 | 2.0 | 0.00 | 0.00 | 0.00 | 59 | 1013.0 |
| 20260905035924 | 84 | 120 | 1.0 | 2.0 | 0.00 | 0.00 | 0.00 | 59 | 1013.3 |
| 20260905035419 | 84 | 124 | 0.0 | 2.0 | 0.00 | 0.00 | 0.00 | 59 | 1013.0 |
| 20260905034916 | 84 | 89 | 1.0 | 2.0 | 0.00 | 0.00 | 0.00 | 58 | 1013.2 |
| 20260905034411 | 84 | 125 | 0.0 | 2.0 | 0.00 | 0.00 | 0.00 | 58 | 1013.2 |
| 20260905033910 | 84 | 108 | 2.0 | 3.0 | 0.00 | 0.00 | 0.00 | 58 | 1013.1 |
| 20260905033405 | 84 | 113 | 1.0 | 6.0 | 0.00 | 0.00 | 0.00 | 58 | 1013.0 |
| 20260905032905 | 85 | 111 | 1.0 | 2.0 | 0.00 | 0.00 | 0.00 | 58 | 1013.1 |
| 20260905032400 | 85 | 111 | 2.0 | 5.0 | 0.00 | 0.00 | 0.00 | 57 | 1013.1 |
| 20260905031855 | 85 | 148 | 2.0 | 3.0 | 0.00 | 0.00 | 0.00 | 57 | 1013.2 |
| 20260905031351 | 85 | 146 | 1.0 | 3.0 | 0.00 | 0.00 | 0.00 | 57 | 1013.1 |
| 20260905030846 | 85 | 112 | 1.0 | 3.0 | 0.00 | 0.00 | 0.00 | 57 | 1013.1 |
| 20260905030342 | 85 | 145 | 0.0 | 3.0 | 0.00 | 0.00 | 0.00 | 57 | 1012.9 |
| 20260905025841 | 85 | 131 | 0.0 | 2.0 | 0.00 | 0.00 | 0.00 | 57 | 1013.1 |
| 20260905025336 | 85 | 123 | 1.0 | 2.0 | 0.00 | 0.00 | 0.00 | 57 | 1012.9 |
| 20260905024833 | 85 | 137 | 1.0 | 2.0 | 0.00 | 0.00 | 0.00 | 57 | 1012.7 |
| 20260905024327 | 86 | 119 | 1.0 | 2.0 | 0.00 | 0.00 | 0.00 | 56 | 1012.7 |
| 20260905023823 | 86 | 123 | 0.0 | 2.0 | 0.00 | 0.00 | 0.00 | 55 | 1012.6 |
| 20260905023319 | 86 | 120 | 1.0 | 2.0 | 0.00 | 0.00 | 0.00 | 55 | 1012.7 |
| 20260905022817 | 86 | 135 | 1.0 | 2.0 | 0.00 | 0.00 | 0.00 | 54 | 1012.5 |
| 20260905022312 | 87 | 122 | 0.0 | 3.0 | 0.00 | 0.00 | 0.00 | 54 | 1012.5 |
| 20260905021812 | 87 | 122 | 2.0 | 3.0 | 0.00 | 0.00 | 0.00 | 54 | 1012.3 |
| 20260905021308 | 87 | 117 | 2.0 | 2.0 | 0.00 | 0.00 | 0.00 | 53 | 1012.5 |
| 20260905020802 | 87 | 172 | 2.0 | 3.0 | 0.00 | 0.00 | 0.00 | 53 | 1012.3 |
| 20260905020257 | 87 | 125 | 1.0 | 2.0 | 0.00 | 0.00 | 0.00 | 52 | 1012.2 |
| 20260905015756 | 87 | 153 | 1.0 | 1.0 | 0.00 | 0.00 | 0.00 | 51 | 1012.3 |
| 20260905015251 | 88 | 122 | 1.0 | 2.0 | 0.00 | 0.00 | 0.00 | 51 | 1012.2 |
| 20260905014749 | 88 | 135 | 0.0 | 2.0 | 0.00 | 0.00 | 0.00 | 50 | 1011.9 |
| 20260905014245 | 89 | 123 | 2.0 | 3.0 | 0.00 | 0.00 | 0.00 | 49 | 1011.7 |
| 20260905013741 | 89 | 136 | 3.0 | 3.0 | 0.00 | 0.00 | 0.00 | 49 | 1011.6 |
| 20260905013237 | 89 | 141 | 1.0 | 2.0 | 0.00 | 0.00 | 0.00 | 48 | 1011.9 |
| 20260905012732 | 90 | 105 | 1.0 | 2.0 | 0.00 | 0.00 | 0.00 | 47 | 1012.0 |
| 20260905012227 | 90 | 175 | 2.0 | 3.0 | 0.00 | 0.00 | 0.00 | 47 | 1011.4 |
| 20260905011724 | 90 | 115 | 1.0 | 5.0 | 0.00 | 0.00 | 0.00 | 46 | 1011.5 |
| 20260905011214 | 91 | 148 | 0.0 | 0.0 | 0.00 | 0.00 | 0.00 | 46 | 1011.3 |
| 20260905010714 | 91 | 104 | 2.0 | 3.0 | 0.00 | 0.00 | 0.00 | 46 | 1011.4 |
| 20260905010209 | 91 | 115 | 0.0 | 3.0 | 0.00 | 0.00 | 0.00 | 45 | 1011.3 |
| 20260905005706 | 92 | 114 | 2.0 | 3.0 | 0.00 | 0.00 | 0.00 | 44 | 1011.4 |
| 20260905005201 | 92 | 145 | 0.0 | 1.0 | 0.00 | 0.00 | 0.00 | 43 | 1011.3 |
| 20260905004655 | 92 | 111 | 1.0 | 3.0 | 0.00 | 0.00 | 0.00 | 43 | 1011.5 |
| 20260905004150 | 93 | 175 | 1.0 | 2.0 | 0.00 | 0.00 | 0.00 | 42 | 1011.4 |
| 20260905003646 | 93 | 137 | 1.0 | 3.0 | 0.00 | 0.00 | 0.00 | 42 | 1011.3 |
| 20260905003141 | 94 | 134 | 0.0 | 2.0 | 0.00 | 0.00 | 0.00 | 41 | 1011.1 |
| 20260905002637 | 94 | 131 | 0.0 | 3.0 | 0.00 | 0.00 | 0.00 | 40 | 1011.5 |
| 20260905002131 | 95 | 128 | 1.0 | 5.0 | 0.00 | 0.00 | 0.00 | 40 | 1011.1 |
| 20260905001627 | 95 | 132 | 1.0 | 7.0 | 0.00 | 0.00 | 0.00 | 39 | 1011.1 |
| 20260905001126 | 95 | 101 | 1.0 | 8.0 | 0.00 | 0.00 | 0.00 | 38 | 1011.3 |
| 20260905000621 | 96 | 94 | 1.0 | 5.0 | 0.00 | 0.00 | 0.00 | 38 | 1011.2 |
| 20260905000117 | 96 | 174 | 1.0 | 6.0 | 0.00 | 0.00 | 0.00 | 38 | 1011.2 |
| 20260904235617 | 96 | 113 | 3.0 | 7.0 | 0.00 | 0.00 | 0.00 | 38 | 1011.2 |
| 20260904235116 | 97 | 99 | 5.0 | 11.0 | 0.00 | 0.00 | 0.00 | 38 | 1011.1 |
| 20260904234612 | 98 | 107 | 5.0 | 10.0 | 0.00 | 0.00 | 0.00 | 37 | 1011.1 |
| 20260904234107 | 98 | 73 | 5.0 | 7.0 | 0.00 | 0.00 | 0.00 | 36 | 1011.1 |
| 20260904233602 | 98 | 132 | 1.0 | 13.0 | 0.00 | 0.00 | 0.00 | 35 | 1010.7 |
| 20260904233058 | 98 | 112 | 7.0 | 10.0 | 0.00 | 0.00 | 0.00 | 35 | 1011.0 |
| 20260904232555 | 98 | 134 | 3.0 | 9.0 | 0.00 | 0.00 | 0.00 | 35 | 1010.9 |
| 20260904232051 | 99 | 117 | 9.0 | 14.0 | 0.00 | 0.00 | 0.00 | 34 | 1010.9 |
| 20260904231547 | 99 | 110 | 7.0 | 9.0 | 0.00 | 0.00 | 0.00 | 35 | 1011.0 |
| 20260904231041 | 99 | 97 | 5.0 | 11.0 | 0.00 | 0.00 | 0.00 | 35 | 1010.9 |
| 20260904230540 | 99 | 65 | 4.0 | 8.0 | 0.00 | 0.00 | 0.00 | 35 | 1010.9 |
| 20260904230036 | 100 | 104 | 3.0 | 6.0 | 0.00 | 0.00 | 0.00 | 35 | 1010.8 |
| 20260904225534 | 100 | 150 | 3.0 | 7.0 | 0.00 | 0.00 | 0.00 | 35 | 1010.9 |
| 20260904225033 | 100 | 176 | 3.0 | 11.0 | 0.00 | 0.00 | 0.00 | 35 | 1011.0 |
| 20260904224529 | 100 | 79 | 3.0 | 8.0 | 0.00 | 0.00 | 0.00 | 35 | 1010.8 |
| 20260904224028 | 101 | 159 | 3.0 | 10.0 | 0.00 | 0.00 | 0.00 | 35 | 1010.9 |
| 20260904223527 | 100 | 172 | 3.0 | 7.0 | 0.00 | 0.00 | 0.00 | 35 | 1010.7 |
| 20260904223024 | 100 | 140 | 1.0 | 7.0 | 0.00 | 0.00 | 0.00 | 35 | 1010.6 |
| 20260904222519 | 100 | 116 | 7.0 | 14.0 | 0.00 | 0.00 | 0.00 | 35 | 1010.8 |
| 20260904222014 | 101 | 133 | 6.0 | 8.0 | 0.00 | 0.00 | 0.00 | 33 | 1010.7 |
| 20260904221508 | 101 | 131 | 6.0 | 9.0 | 0.00 | 0.00 | 0.00 | 33 | 1011.0 |
| 20260904221003 | 100 | 96 | 7.0 | 10.0 | 0.00 | 0.00 | 0.00 | 34 | 1010.7 |
| 20260904220503 | 100 | 85 | 7.0 | 15.0 | 0.00 | 0.00 | 0.00 | 33 | 1010.9 |
| 20260904215958 | 100 | 132 | 9.0 | 14.0 | 0.00 | 0.00 | 0.00 | 33 | 1010.7 |
| 20260904215453 | 101 | 90 | 8.0 | 15.0 | 0.00 | 0.00 | 0.00 | 33 | 1010.6 |
| 20260904214948 | 101 | 200 | 3.0 | 9.0 | 0.00 | 0.00 | 0.00 | 33 | 1010.9 |
| 20260904214444 | 102 | 129 | 7.0 | 10.0 | 0.00 | 0.00 | 0.00 | 33 | 1010.8 |
| 20260904213739 | 102 | 130 | 8.0 | 11.0 | 0.00 | 0.00 | 0.00 | 34 | 1010.9 |
| 20260904213235 | 102 | 130 | 8.0 | 11.0 | 0.00 | 0.00 | 0.00 | 34 | 1010.9 |
| 20260904212731 | 102 | 138 | 5.0 | 10.0 | 0.00 | 0.00 | 0.00 | 34 | 1011.1 |
| 20260904212225 | 101 | 206 | 3.0 | 7.0 | 0.00 | 0.00 | 0.00 | 35 | 1011.1 |
| 20260904211725 | 101 | 87 | 5.0 | 9.0 | 0.00 | 0.00 | 0.00 | 35 | 1010.8 |
| 20260904211220 | 101 | 154 | 3.0 | 11.0 | 0.00 | 0.00 | 0.00 | 35 | 1010.9 |
| 20260904210715 | 101 | 152 | 6.0 | 10.0 | 0.00 | 0.00 | 0.00 | 35 | 1010.9 |
| 20260904210210 | 101 | 102 | 7.0 | 9.0 | 0.00 | 0.00 | 0.00 | 36 | 1011.2 |
| 20260904205706 | 102 | 156 | 1.0 | 7.0 | 0.00 | 0.00 | 0.00 | 35 | 1011.1 |
| 20260904205202 | 102 | 123 | 3.0 | 7.0 | 0.00 | 0.00 | 0.00 | 35 | 1011.0 |
| 20260904204658 | 101 | 92 | 2.0 | 10.0 | 0.00 | 0.00 | 0.00 | 36 | 1010.9 |
| 20260904204154 | 101 | 203 | 3.0 | 5.0 | 0.00 | 0.00 | 0.00 | 35 | 1011.2 |
| 20260904203649 | 101 | 338 | 2.0 | 13.0 | 0.00 | 0.00 | 0.00 | 36 | 1011.1 |
| 20260904203146 | 102 | 129 | 6.0 | 13.0 | 0.00 | 0.00 | 0.00 | 35 | 1011.1 |
| 20260904202641 | 101 | 128 | 4.0 | 11.0 | 0.00 | 0.00 | 0.00 | 36 | 1011.3 |
| 20260904202138 | 102 | 197 | 3.0 | 6.0 | 0.00 | 0.00 | 0.00 | 35 | 1011.3 |
| 20260904201632 | 102 | 125 | 4.0 | 8.0 | 0.00 | 0.00 | 0.00 | 37 | 1011.4 |
| 20260904201127 | 101 | 124 | 5.0 | 7.0 | 0.00 | 0.00 | 0.00 | 35 | 1011.6 |
| 20260904200627 | 101 | 130 | 5.0 | 9.0 | 0.00 | 0.00 | 0.00 | 36 | 1011.7 |
| 20260904200122 | 101 | 162 | 5.0 | 8.0 | 0.00 | 0.00 | 0.00 | 36 | 1011.4 |
| 20260904195621 | 101 | 130 | 1.0 | 7.0 | 0.00 | 0.00 | 0.00 | 36 | 1011.6 |
| 20260904195119 | 101 | 53 | 6.0 | 10.0 | 0.00 | 0.00 | 0.00 | 37 | 1011.9 |
| 20260904194614 | 102 | 51 | 4.0 | 9.0 | 0.00 | 0.00 | 0.00 | 35 | 1011.9 |
| 20260904194109 | 101 | 157 | 1.0 | 11.0 | 0.00 | 0.00 | 0.00 | 37 | 1011.3 |
| 20260904193603 | 101 | 215 | 7.0 | 10.0 | 0.00 | 0.00 | 0.00 | 37 | 1011.6 |
| 20260904193100 | 101 | 160 | 3.0 | 8.0 | 0.00 | 0.00 | 0.00 | 36 | 1011.4 |
| 20260904192600 | 101 | 104 | 4.0 | 8.0 | 0.00 | 0.00 | 0.00 | 38 | 1011.7 |
| 20260904192055 | 100 | 155 | 3.0 | 9.0 | 0.00 | 0.00 | 0.00 | 37 | 1011.7 |
| 20260904191552 | 100 | 227 | 5.0 | 10.0 | 0.00 | 0.00 | 0.00 | 39 | 1012.0 |
| 20260904191048 | 100 | 162 | 1.0 | 6.0 | 0.00 | 0.00 | 0.00 | 40 | 1011.9 |
| 20260904190543 | 99 | 109 | 6.0 | 10.0 | 0.00 | 0.00 | 0.00 | 40 | 1012.1 |
| 20260904190040 | 99 | 170 | 0.0 | 5.0 | 0.00 | 0.00 | 0.00 | 41 | 1012.3 |
| 20260904185536 | 99 | 131 | 6.0 | 10.0 | 0.00 | 0.00 | 0.00 | 41 | 1012.3 |
| 20260904185031 | 99 | 99 | 1.0 | 8.0 | 0.00 | 0.00 | 0.00 | 42 | 1012.4 |
| 20260904184525 | 99 | 117 | 3.0 | 7.0 | 0.00 | 0.00 | 0.00 | 42 | 1012.5 |
| 20260904184020 | 98 | 71 | 4.0 | 9.0 | 0.00 | 0.00 | 0.00 | 43 | 1012.7 |
| 20260904183515 | 98 | 153 | 0.0 | 7.0 | 0.00 | 0.00 | 0.00 | 45 | 1012.5 |
| 20260904183010 | 99 | 155 | 7.0 | 9.0 | 0.00 | 0.00 | 0.00 | 44 | 1012.6 |
| 20260904182506 | 97 | 203 | 2.0 | 7.0 | 0.00 | 0.00 | 0.00 | 46 | 1012.5 |
| 20260904182005 | 98 | 120 | 2.0 | 8.0 | 0.00 | 0.00 | 0.00 | 47 | 1012.6 |
| 20260904181501 | 98 | 94 | 1.0 | 6.0 | 0.00 | 0.00 | 0.00 | 47 | 1012.7 |
| 20260904180955 | 96 | 161 | 2.0 | 6.0 | 0.00 | 0.00 | 0.00 | 49 | 1012.7 |
| 20260904175520 | 96 | 108 | 2.0 | 6.0 | 0.00 | 0.00 | 0.00 | 51 | 1012.9 |
| 20260904175018 | 96 | 108 | 2.0 | 6.0 | 0.00 | 0.00 | 0.00 | 51 | 1012.9 |
| 20260904174514 | 95 | 128 | 2.0 | 7.0 | 0.00 | 0.00 | 0.00 | 50 | 1013.2 |
| 20260904174011 | 95 | 181 | 6.0 | 9.0 | 0.00 | 0.00 | 0.00 | 51 | 1012.9 |
| 20260904173505 | 95 | 121 | 1.0 | 8.0 | 0.00 | 0.00 | 0.00 | 52 | 1013.0 |
| 20260904173001 | 94 | 183 | 1.0 | 7.0 | 0.00 | 0.00 | 0.00 | 52 | 1013.2 |
| 20260904172456 | 94 | 167 | 3.0 | 9.0 | 0.00 | 0.00 | 0.00 | 53 | 1013.2 |
| 20260904171955 | 94 | 130 | 4.0 | 8.0 | 0.00 | 0.00 | 0.00 | 53 | 1013.4 |
| 20260904170807 | 93 | 134 | 4.0 | 7.0 | 0.00 | 0.00 | 0.00 | 53 | 1013.1 |
| 20260904170303 | 93 | 134 | 4.0 | 7.0 | 0.00 | 0.00 | 0.00 | 53 | 1013.1 |
| 20260904165802 | 93 | 195 | 2.0 | 6.0 | 0.00 | 0.00 | 0.00 | 55 | 1013.1 |
| 20260904165256 | 93 | 167 | 1.0 | 6.0 | 0.00 | 0.00 | 0.00 | 56 | 1013.1 |
| 20260904164755 | 93 | 203 | 1.0 | 6.0 | 0.00 | 0.00 | 0.00 | 55 | 1013.3 |
| 20260904164043 | 92 | 115 | 5.0 | 9.0 | 0.00 | 0.00 | 0.00 | 58 | 1013.3 |
| 20260904163543 | 92 | 115 | 5.0 | 9.0 | 0.00 | 0.00 | 0.00 | 58 | 1013.3 |
| 20260904163039 | 92 | 142 | 2.0 | 5.0 | 0.00 | 0.00 | 0.00 | 56 | 1013.4 |
| 20260904162533 | 92 | 211 | 2.0 | 8.0 | 0.00 | 0.00 | 0.00 | 57 | 1013.4 |
| 20260904162028 | 93 | 300 | 3.0 | 5.0 | 0.00 | 0.00 | 0.00 | 56 | 1013.2 |
| 20260904161523 | 90 | 176 | 3.0 | 6.0 | 0.00 | 0.00 | 0.00 | 60 | 1013.2 |
| 20260904161018 | 90 | 170 | 0.0 | 3.0 | 0.00 | 0.00 | 0.00 | 60 | 1013.0 |
| 20260904160513 | 89 | 160 | 0.0 | 7.0 | 0.00 | 0.00 | 0.00 | 62 | 1013.4 |
| 20260904160009 | 89 | 188 | 1.0 | 3.0 | 0.00 | 0.00 | 0.00 | 62 | 1013.3 |
| 20260904155503 | 89 | 161 | 1.0 | 7.0 | 0.00 | 0.00 | 0.00 | 63 | 1013.0 |
| 20260904155002 | 88 | 253 | 0.0 | 2.0 | 0.00 | 0.00 | 0.00 | 64 | 1013.1 |
| 20260904154456 | 88 | 277 | 0.0 | 2.0 | 0.00 | 0.00 | 0.00 | 64 | 1013.2 |
| 20260904153951 | 87 | 189 | 0.0 | 2.0 | 0.00 | 0.00 | 0.00 | 66 | 1013.2 |
| 20260904153446 | 87 | 160 | 4.0 | 6.0 | 0.00 | 0.00 | 0.00 | 66 | 1013.2 |
| 20260904152943 | 87 | 242 | 3.0 | 9.0 | 0.00 | 0.00 | 0.00 | 66 | 1013.0 |
| 20260904152438 | 87 | 205 | 1.0 | 3.0 | 0.00 | 0.00 | 0.00 | 66 | 1013.0 |
| 20260904151937 | 86 | 220 | 2.0 | 5.0 | 0.00 | 0.00 | 0.00 | 67 | 1013.1 |
| 20260904151433 | 85 | 162 | 1.0 | 7.0 | 0.00 | 0.00 | 0.00 | 69 | 1012.9 |
| 20260904150927 | 85 | 174 | 1.0 | 1.0 | 0.00 | 0.00 | 0.00 | 69 | 1013.0 |
| 20260904150422 | 86 | 161 | 1.0 | 3.0 | 0.00 | 0.00 | 0.00 | 68 | 1013.0 |
| 20260904145920 | 84 | 249 | 0.0 | 0.0 | 0.00 | 0.00 | 0.00 | 70 | 1013.0 |
| 20260904145417 | 85 | 163 | 3.0 | 5.0 | 0.00 | 0.00 | 0.00 | 69 | 1013.2 |
| 20260904144912 | 84 | 191 | 0.0 | 1.0 | 0.00 | 0.00 | 0.00 | 71 | 1013.1 |
| 20260904144407 | 84 | 193 | 0.0 | 3.0 | 0.00 | 0.00 | 0.00 | 72 | 1013.1 |
| 20260904143903 | 83 | 349 | 3.0 | 5.0 | 0.00 | 0.00 | 0.00 | 73 | 1012.9 |
| 20260904143400 | 83 | 144 | 1.0 | 1.0 | 0.00 | 0.00 | 0.00 | 73 | 1013.2 |
| 20260904142856 | 82 | 149 | 2.0 | 5.0 | 0.00 | 0.00 | 0.00 | 75 | 1013.0 |
| 20260904142352 | 82 | 211 | 4.0 | 6.0 | 0.00 | 0.00 | 0.00 | 75 | 1013.1 |
| 20260904141851 | 81 | 210 | 2.0 | 6.0 | 0.00 | 0.00 | 0.00 | 76 | 1013.1 |
| 20260904141347 | 80 | 152 | 1.0 | 5.0 | 0.00 | 0.00 | 0.00 | 77 | 1013.1 |
| 20260904140843 | 80 | 205 | 3.0 | 5.0 | 0.00 | 0.00 | 0.00 | 77 | 1013.3 |
| 20260904140337 | 80 | 189 | 3.0 | 5.0 | 0.00 | 0.00 | 0.00 | 78 | 1013.0 |
| 20260904135837 | 79 | 229 | 1.0 | 6.0 | 0.00 | 0.00 | 0.00 | 79 | 1013.1 |
| 20260904135331 | 79 | 160 | 5.0 | 6.0 | 0.00 | 0.00 | 0.00 | 79 | 1013.1 |
| 20260904134827 | 79 | 180 | 0.0 | 5.0 | 0.00 | 0.00 | 0.00 | 80 | 1013.0 |
| 20260904134322 | 78 | 177 | 0.0 | 6.0 | 0.00 | 0.00 | 0.00 | 80 | 1012.9 |
| 20260904133822 | 78 | 158 | 0.0 | 0.0 | 0.00 | 0.00 | 0.00 | 81 | 1012.8 |
| 20260904133318 | 78 | 194 | 2.0 | 3.0 | 0.00 | 0.00 | 0.00 | 82 | 1012.8 |
| 20260904132817 | 77 | 93 | 0.0 | 2.0 | 0.00 | 0.00 | 0.00 | 83 | 1013.0 |
| 20260904132313 | 77 | 172 | 0.0 | 0.0 | 0.00 | 0.00 | 0.00 | 84 | 1012.9 |
| 20260904131812 | 77 | 195 | 0.0 | 2.0 | 0.00 | 0.00 | 0.00 | 85 | 1012.9 |
| 20260904131308 | 76 | 176 | 1.0 | 2.0 | 0.00 | 0.00 | 0.00 | 85 | 1012.6 |
| 20260904130807 | 76 | 140 | 0.0 | 5.0 | 0.00 | 0.00 | 0.00 | 86 | 1012.7 |
| 20260904124944 | 74 | 127 | 0.0 | 5.0 | 0.00 | 0.00 | 0.00 | 88 | 1012.5 |
| 20260904124440 | 74 | 127 | 0.0 | 5.0 | 0.00 | 0.00 | 0.00 | 88 | 1012.5 |
| 20260904123936 | 74 | 127 | 0.0 | 5.0 | 0.00 | 0.00 | 0.00 | 88 | 1012.5 |
| 20260904123430 | 74 | 156 | 0.0 | 6.0 | 0.00 | 0.00 | 0.00 | 89 | 1012.5 |
| 20260904122925 | 74 | 156 | 0.0 | 6.0 | 0.00 | 0.00 | 0.00 | 89 | 1012.5 |
| 20260904122420 | 74 | 126 | 0.0 | 1.0 | 0.00 | 0.00 | 0.00 | 89 | 1012.6 |
| 20260904121914 | 74 | 150 | 0.0 | 0.0 | 0.00 | 0.00 | 0.00 | 89 | 1012.3 |
| 20260904121411 | 74 | 118 | 0.0 | 0.0 | 0.00 | 0.00 | 0.00 | 88 | 1012.5 |
| 20260904120907 | 74 | 130 | 0.0 | 2.0 | 0.00 | 0.00 | 0.00 | 88 | 1012.3 |
| 20260904120403 | 74 | 113 | 0.0 | 1.0 | 0.00 | 0.00 | 0.00 | 88 | 1012.3 |
| 20260904115858 | 74 | 178 | 1.0 | 3.0 | 0.00 | 0.00 | 0.00 | 88 | 1012.1 |
| 20260904115353 | 74 | 157 | 0.0 | 0.0 | 0.00 | 0.00 | 0.00 | 88 | 1012.3 |
| 20260904114847 | 74 | 174 | 0.0 | 0.0 | 0.00 | 0.00 | 0.00 | 88 | 1012.4 |
| 20260904114342 | 74 | 253 | 0.0 | 1.0 | 0.00 | 0.00 | 0.00 | 88 | 1012.1 |
| 20260904113837 | 74 | 141 | 0.0 | 1.0 | 0.00 | 0.00 | 0.00 | 88 | 1012.2 |
| 20260904113336 | 74 | 164 | 0.0 | 0.0 | 0.00 | 0.00 | 0.00 | 87 | 1012.2 |